EW7069 Weather Reports


Display with metric or nautical units.
time (UTC)temp
F
wind
direction
speed
MPH
gust
MPH
rain 1hr
in
rain 24hr
in
rain mn
in
humidity
%
barometer
mb
20260503032003 33 0 0.0 0.0 0.00 0.00 0.00 55 997.6
20260503031003 33 337 0.0 1.0 0.00 0.00 0.00 55 997.7
20260503030003 33 337 0.0 2.0 0.00 0.00 0.00 56 997.6
20260503025003 33 337 0.0 1.0 0.00 0.00 0.00 56 997.5
20260503024002 33 337 0.0 1.0 0.00 0.00 0.00 54 997.6
20260503023002 33 337 0.0 1.0 0.00 0.00 0.00 53 998.2
20260503022002 34 337 0.0 1.0 0.00 0.00 0.00 50 998.7
20260503021002 34 0 0.0 0.0 0.00 0.00 0.00 50 999.0
20260503020004 35 337 0.0 1.0 0.00 0.00 0.00 48 999.0
20260503015002 36 337 0.0 1.0 0.00 0.00 0.00 45 999.5
20260503014003 36 337 0.0 2.0 0.00 0.00 0.00 43 999.7
20260503013002 37 337 0.0 1.0 0.00 0.00 0.00 41 1000.6
20260503012003 38 0 0.0 0.0 0.00 0.00 0.00 44 1001.8
20260503011003 39 337 0.0 2.0 0.00 0.00 0.00 42 1002.2
20260503010002 40 0 0.0 0.0 0.00 0.00 0.00 38 1002.6
20260503005003 42 337 0.0 2.0 0.00 0.00 0.00 35 1003.0
20260503003003 44 338 2.0 4.0 0.00 0.00 0.00 31 1003.9
20260503002002 45 337 2.0 3.0 0.00 0.00 0.00 29 1004.6
20260503000003 46 337 3.0 4.0 0.00 0.00 0.00 28 1005.1
20260502235002 46 338 3.0 6.0 0.00 0.00 0.00 30 1004.2
20260502232002 47 338 3.0 5.0 0.00 0.00 0.00 29 1005.1
20260502231003 48 337 3.0 5.0 0.00 0.00 0.00 30 1005.5
20260502230002 49 337 3.0 4.0 0.00 0.00 0.00 32 1005.6
20260502225003 47 338 3.0 8.0 0.00 0.00 0.00 32 1003.9
20260502224003 47 338 2.0 6.0 0.00 0.00 0.00 32 1003.9
20260502223002 47 338 4.0 8.0 0.00 0.00 0.00 30 1004.1
20260502222002 47 337 6.0 9.0 0.00 0.00 0.00 28 1004.2
20260502221003 47 337 3.0 9.0 0.00 0.00 0.00 29 1004.2
20260502214002 50 1 5.0 7.0 0.00 0.00 0.00 29 1004.5
20260502213003 47 1 6.0 9.0 0.00 0.00 0.00 28 1004.0
20260502212003 47 1 6.0 11.0 0.00 0.00 0.00 28 1004.1
20260502211003 47 1 5.0 8.0 0.00 0.00 0.00 28 1004.2
20260502210002 48 1 4.0 7.0 0.00 0.00 0.00 30 1004.5
20260502205003 47 1 4.0 8.0 0.00 0.00 0.00 29 1004.5
20260502204002 47 1 5.0 8.0 0.00 0.00 0.00 27 1004.7
20260502203003 48 1 5.0 9.0 0.00 0.00 0.00 27 1005.1
20260502202003 48 1 6.0 8.0 0.00 0.00 0.00 24 1005.2
20260502201002 50 1 7.0 9.0 0.00 0.00 0.00 24 1005.4
20260502200003 51 1 6.0 8.0 0.00 0.00 0.00 26 1005.3
20260502194002 50 1 6.0 11.0 0.00 0.00 0.00 23 1004.8
20260502193003 51 1 5.0 8.0 0.00 0.00 0.00 27 1004.9
20260502192004 49 1 6.0 9.0 0.00 0.00 0.00 24 1004.8
20260502190002 51 1 5.0 9.0 0.00 0.00 0.00 25 1004.8
20260502184002 50 1 4.0 10.0 0.00 0.00 0.00 23 1004.5
20260502183003 51 1 4.0 5.0 0.00 0.00 0.00 27 1004.3
20260502182003 49 1 6.0 12.0 0.00 0.00 0.00 26 1003.9
20260502163003 47 235 6.0 11.0 0.00 0.00 0.00 27 1001.9
20260502162002 50 225 4.0 5.0 0.00 0.00 0.00 27 1001.8
20260502161004 49 232 6.0 8.0 0.00 0.00 0.00 31 1001.7
20260502152003 46 25 5.0 7.0 0.00 0.00 0.00 30 1001.2
20260502151003 48 332 3.0 4.0 0.00 0.00 0.00 33 1000.9
20260502123003 38 5 2.0 4.0 0.00 0.00 0.00 66 1007.2
20260502122003 36 23 2.0 4.0 0.00 0.00 0.00 65 997.9
20260502121003 33 23 2.0 4.0 0.00 0.00 0.00 68 1006.8
20260502115003 32 31 3.0 7.0 0.00 0.00 0.00 72 997.9
20260502114003 31 34 3.0 6.0 0.00 0.00 0.00 72 998.2
20260502113004 29 22 2.0 4.0 0.00 0.00 0.00 72 998.3
20260502112003 29 23 0.0 2.0 0.00 0.00 0.00 72 997.7
20260502111003 28 22 1.0 2.0 0.00 0.00 0.00 67 1006.7
20260502105003 28 23 0.0 2.0 0.00 0.00 0.00 64 1006.5
20260502104003 28 22 0.0 1.0 0.00 0.00 0.00 67 1006.5
20260502103003 29 22 1.0 2.0 0.00 0.00 0.00 66 997.5
20260502102004 29 23 0.0 2.0 0.00 0.00 0.00 65 997.4
20260502091003 31 22 2.0 3.0 0.00 0.00 0.00 62 997.6
20260502071002 36 23 1.0 2.0 0.00 0.00 0.00 51 997.7
20260502070002 37 22 1.0 2.0 0.00 0.00 0.00 50 998.0
20260502065002 37 22 1.0 3.0 0.00 0.00 0.00 50 998.3
20260502064002 37 22 1.0 2.0 0.00 0.00 0.00 54 998.4
20260502063002 38 23 2.0 3.0 0.00 0.00 0.00 53 998.0
20260502061003 38 22 2.0 3.0 0.00 0.00 0.00 53 998.5
20260502060002 38 22 2.0 3.0 0.00 0.00 0.00 53 998.4
20260502055002 38 23 2.0 3.0 0.00 0.00 0.00 54 998.2
20260502054002 38 22 2.0 4.0 0.00 0.00 0.00 54 998.5
20260502053002 38 23 2.0 4.0 0.00 0.00 0.00 55 998.6
20260502052003 38 22 2.0 4.0 0.00 0.00 0.00 55 998.7
20260502051002 38 22 3.0 4.0 0.00 0.00 0.00 56 998.3
20260502050002 38 22 1.0 4.0 0.00 0.00 0.00 57 998.4
20260502045002 38 22 2.0 4.0 0.00 0.00 0.00 59 998.4
20260502044002 38 22 2.0 4.0 0.00 0.00 0.00 62 998.6
20260502043003 38 22 2.0 4.0 0.00 0.00 0.00 64 998.7
20260502041002 37 22 3.0 4.0 0.00 0.01 0.00 67 999.0
20260502040004 36 22 2.0 4.0 0.00 0.01 0.00 69 999.0
20260502035002 36 23 1.0 3.0 0.00 0.01 0.01 70 999.1
20260502034004 35 22 0.0 1.0 0.00 0.01 0.01 71 999.3
20260502033002 35 0 0.0 0.0 0.00 0.01 0.01 70 999.4